Location: Hains Lake
(37.8540°N, 99.8578°W)
Time: 18:20:29
(UTC+00:00)

Courier 1B Rocket - Pass Details

Date: 09 December 2021
Orbit: 920 x 1202 km, 28.2° (Epoch: 25 January)

Event Time Altitude Azimuth Distance (km) Brightness Sun altitude
Rises 01:16:52 0° 208° (SSW) 3,934 8.7 -22.4°
Reaches altitude 10° 01:21:14 10° 185° (S) 2,915 7.7 -23.2°
Maximum altitude 01:24:42 14° 155° (SSE) 2,563 7.0 -23.9°
Enters shadow 01:25:51 14° 145° (SE) 2,581 7.0 -24.1°
